Showing default

UMBRA-08, 58292

Orbit data source: Space-Track

UMBRA-08, 58292 is a payload satellite owned by Umbra Labs (US) in SSO that was launched on Sat, 11 Nov 2023 UTC via an FALCON 9 launch vehicle from the Air Force Western Test Range (AFWTR). Payload-class satellites include a variety of spacecraft equipped with specific instruments for various scientific and technological missions. These include communications satellites like Starlink; space stations such as the ISS; scientific satellites like the Hubble; Earth observation satellites from companies like Planet Labs, Umbra, and HawkEye 360; GPS; miniature CubeSats for education and research; and military/defense satellites.

Loading next visibility...
Identifier
58292, 2023-174AN
Orbit
SSO
Last TLE update
9 hours ago
Origin
Manufacturer
Umbra Labs
Mission
Operational Commercial Radar Imaging
Bus & Motor
ESPASTAR, Unknown motor
Mass
84 kg wet, 79 kg dry
Launch date (UTC)
2023-11-11 (2 years ago)
Launch vehicle
FALCON 9
Launch site
Air Force Western Test Range (AFWTR)
Object type
Payload
Rocket body
Debris
Shape & HBR
Box + 2 Pan + 1 Dish, 3.8 m
Radar Cross Section
0.929 m², Large (>1 m²)

Expand to show TLE details & history

TLE from 9 hours ago
0 UMBRA-08
1 58292U 23174AN  25188.95120185  .00033382  00000-0  97121-3 0  9990
2 58292  97.4079 264.3083 0002846 153.7514 206.3874 15.35358360 92343
Epoch: 2025-07-07T22:49Z
TLE epoch observation values (Epoch: 2025-07-07T22:49:43.839Z)
Latitude
-0.00006°
Longitude
-4.27753°
Altitude
464.711 km
Speed
7.633 km/s
True Right ascension
17h 37m 13s
True Declination
0° 00' 00"
Sunlit
Object was in full shadow at epoch
Visualization orbit readout
Latitude
-70.11596°
Longitude
17.04917°
Altitude
487.385 km
Speed
7.619 km/s
Apparent Right ascension
08h 49m 29s
Apparent Declination
-75° 37' 18"
Sunlit
Object is in full shadow
Visualization observer readout
Local Sidereal Time
19:59:49
Azimuth
185.195° SSW
Elevation
-53.859°
Doppler factor
1
Orbital elements
Apogee altitude
458.747 km
Perigee altitude
454.857 km
Semi-major axis
6,834.939 km
Eccentricity
0.00028
Inclination
97.4079°
RAAN
264.3083°
Arg. of periapsis
153.7514°
True anomaly
Unknown
Mean anomaly
206.3874°
Eccentric anomaly
Unknown
Mean motion
3.84097 °/min
Orbital period
93.73 mins
BSTAR
0.00097121
Loading maneuver chart data...
Loading SW <> Apogee altitude chart data...
Loading historical data...
Loading historical data...
Loading historical data...
Loading historical data...
Loading historical data...
Loading historical data...
Loading historical data...

UMBRA-08 Visibility forecast

Observer location: undefined°, undefined°

Span
Click to sort rows by Start time (UTC) header in descending order
Start Az.
Max El. time (UTC)
Max El. Az.
Max El.
End time (UTC)
End Az.
6 mins2025-07-08 18:09:11.312Z1.283° NNE2025-07-08 18:12:11.312Z279.312° WNW39.285°2025-07-08 18:15:11.312Z207.538° SW
4 mins2025-07-09 04:42:11.312Z123.705° SE2025-07-09 04:43:11.312Z93.49° ESE30.79°2025-07-09 04:46:11.312Z8.694° NNE
|